EN

Hourly Weather Alimkina

Today, 28 January, Thursday

Time Temperature Precipitation Wind Pressure Humidity
00:00 -4°C° 0.2 mm 2 mps 735 mmHg 95%
01:00 -4°C° 0.2 mm 2 mps 734 mmHg 95%
02:00 -4°C° 0 mm 3 mps 734 mmHg 96%
03:00 -4°C° 0.5 mm 3 mps 734 mmHg 97%
04:00 -3°C° 0.5 mm 4 mps 733 mmHg 97%
05:00 -3°C° 0.5 mm 4 mps 733 mmHg 98%
06:00 -2°C° 0.6 mm 4 mps 733 mmHg 97%
07:00 -2°C° 0.6 mm 4 mps 732 mmHg 97%
08:00 -1°C° 0.6 mm 5 mps 732 mmHg 97%
09:00 -1°C° 0.4 mm 4 mps 732 mmHg 98%
10:00 -1°C° 0.4 mm 4 mps 732 mmHg 98%
11:00 -1°C° 0.4 mm 4 mps 732 mmHg 99%
12:00 -1°C° 0.1 mm 4 mps 731 mmHg 99%
13:00 -1°C° 0.1 mm 4 mps 731 mmHg 99%
14:00 -1°C° 0.1 mm 4 mps 731 mmHg 99%
15:00 -1°C° 0.2 mm 5 mps 731 mmHg 98%
16:00 -1°C° 0.2 mm 5 mps 731 mmHg 98%
17:00 -1°C° 0.2 mm 5 mps 731 mmHg 97%
18:00 -2°C° 0.1 mm 5 mps 731 mmHg 96%
19:00 -2°C° 0.1 mm 5 mps 731 mmHg 95%
20:00 -2°C° 0.1 mm 4 mps 730 mmHg 95%
21:00 -2°C° 0.1 mm 5 mps 730 mmHg 95%
22:00 -2°C° 0.1 mm 5 mps 730 mmHg 96%
23:00 -2°C° 0.1 mm 6 mps 730 mmHg 96%

Tomorrow, 29 January, Friday

Time Temperature Precipitation Wind Pressure Humidity
00:00 -2°C° 0.1 mm 6 mps 729 mmHg 97%
01:00 -2°C° 0.1 mm 6 mps 729 mmHg 98%
02:00 -2°C° 0.1 mm 6 mps 729 mmHg 99%
03:00 -1°C° 0 mm 5 mps 729 mmHg 98%
04:00 -1°C° 0 mm 5 mps 728 mmHg 97%
05:00 -1°C° 0 mm 5 mps 728 mmHg 96%
06:00 -2°C° 0 mm 5 mps 728 mmHg 93%
07:00 -4°C° 0 mm 6 mps 727 mmHg 91%
08:00 -5°C° 0 mm 6 mps 727 mmHg 88%
09:00 -6°C° 0 mm 7 mps 727 mmHg 88%
10:00 -6°C° 0 mm 8 mps 726 mmHg 89%
11:00 -6°C° 0 mm 8 mps 726 mmHg 89%
12:00 -5°C° 0.1 mm 8 mps 725 mmHg 90%
13:00 -5°C° 0.1 mm 8 mps 725 mmHg 92%
14:00 -5°C° 0.1 mm 8 mps 725 mmHg 93%
15:00 -6°C° 0.2 mm 7 mps 725 mmHg 93%
16:00 -6°C° 0.2 mm 7 mps 725 mmHg 93%
17:00 -5°C° 0.2 mm 6 mps 725 mmHg 92%
18:00 -6°C° 0.1 mm 6 mps 725 mmHg 93%
19:00 -7°C° 0.1 mm 5 mps 725 mmHg 93%
20:00 -7°C° 0.1 mm 5 mps 725 mmHg 93%
21:00 -7°C° 0.2 mm 4 mps 726 mmHg 93%
22:00 -7°C° 0.2 mm 4 mps 726 mmHg 93%
23:00 -7°C° 0.2 mm 4 mps 726 mmHg 94%

Day after tomorrow, 30 January, Saturday

Time Temperature Precipitation Wind Pressure Humidity
00:00 -8°C° 0.1 mm 4 mps 726 mmHg 94%
01:00 -7°C° 0.1 mm 3 mps 726 mmHg 95%
02:00 -7°C° 0.1 mm 3 mps 726 mmHg 95%
03:00 -8°C° 0 mm 3 mps 725 mmHg 95%
04:00 -9°C° 0 mm 3 mps 725 mmHg 95%
05:00 -10°C° 0 mm 3 mps 725 mmHg 94%
06:00 -11°C° 0 mm 4 mps 726 mmHg 94%
07:00 -12°C° 0 mm 5 mps 726 mmHg 94%
08:00 -12°C° 0 mm 5 mps 726 mmHg 93%
09:00 -11°C° 0 mm 6 mps 727 mmHg 92%
10:00 -10°C° 0 mm 6 mps 728 mmHg 91%
11:00 -9°C° 0 mm 6 mps 728 mmHg 90%
12:00 -9°C° 0 mm 6 mps 728 mmHg 89%
13:00 -9°C° 0 mm 6 mps 728 mmHg 89%
14:00 -8°C° 0 mm 5 mps 728 mmHg 88%
15:00 -8°C° 0 mm 5 mps 728 mmHg 89%
16:00 -8°C° 0 mm 5 mps 728 mmHg 91%
17:00 -8°C° 0 mm 5 mps 728 mmHg 92%
18:00 -8°C° 0.1 mm 5 mps 728 mmHg 93%
19:00 -8°C° 0.1 mm 4 mps 728 mmHg 93%
20:00 -7°C° 0.1 mm 4 mps 728 mmHg 94%
21:00 -7°C° 0.4 mm 4 mps 727 mmHg 95%
22:00 -7°C° 0.4 mm 4 mps 726 mmHg 95%
23:00 -5°C° 0.4 mm 4 mps 726 mmHg 96%

31 January, Sunday

Time Temperature Precipitation Wind Pressure Humidity
00:00 -5°C° 0.3 mm 4 mps 725 mmHg 96%
01:00 -5°C° 0.3 mm 5 mps 724 mmHg 96%
02:00 -5°C° 0.3 mm 5 mps 724 mmHg 96%
03:00 -3°C° 0.5 mm 4 mps 723 mmHg 97%
04:00 -2°C° 0.5 mm 4 mps 722 mmHg 97%
05:00 -2°C° 0.5 mm 4 mps 721 mmHg 98%
06:00 -2°C° 0.6 mm 4 mps 721 mmHg 98%
07:00 -1°C° 0.6 mm 3 mps 720 mmHg 98%
08:00 -1°C° 0.6 mm 3 mps 720 mmHg 98%
09:00 -1°C° 0.5 mm 3 mps 720 mmHg 98%
10:00 -1°C° 0.5 mm 3 mps 720 mmHg 99%
11:00 -1°C° 0.5 mm 3 mps 720 mmHg 99%
12:00 -4°C° 0.5 mm 5 mps 720 mmHg 97%
13:00 -6°C° 0.5 mm 7 mps 721 mmHg 96%
14:00 -8°C° 0.5 mm 9 mps 722 mmHg 94%
15:00 -9°C° 0.1 mm 9 mps 723 mmHg 91%
16:00 -10°C° 0.1 mm 8 mps 725 mmHg 89%
17:00 -9°C° 0.1 mm 7 mps 726 mmHg 87%
18:00 -11°C° 0 mm 7 mps 727 mmHg 88%
19:00 -11°C° 0 mm 7 mps 729 mmHg 89%
20:00 -12°C° 0 mm 7 mps 730 mmHg 90%
21:00 -11°C° 0 mm 6 mps 731 mmHg 90%
22:00 -11°C° 0 mm 6 mps 732 mmHg 90%
23:00 -11°C° 0 mm 5 mps 733 mmHg 90%

1 February, Monday

Time Temperature Precipitation Wind Pressure Humidity
00:00 -12°C° 0 mm 5 mps 733 mmHg 91%
01:00 -12°C° 0 mm 5 mps 734 mmHg 92%
02:00 -12°C° 0 mm 4 mps 735 mmHg 93%
03:00 -12°C° 0 mm 4 mps 735 mmHg 93%
04:00 -12°C° 0 mm 4 mps 735 mmHg 94%
05:00 -14°C° 0 mm 4 mps 736 mmHg 94%
06:00 -14°C° 0 mm 4 mps 736 mmHg 94%
07:00 -13°C° 0 mm 3 mps 737 mmHg 95%
08:00 -13°C° 0 mm 3 mps 737 mmHg 95%
09:00 -12°C° 0 mm 3 mps 737 mmHg 94%
10:00 -10°C° 0 mm 3 mps 737 mmHg 93%
11:00 -9°C° 0 mm 3 mps 737 mmHg 93%
12:00 -8°C° 0 mm 3 mps 737 mmHg 92%
13:00 -8°C° 0 mm 3 mps 736 mmHg 92%
14:00 -7°C° 0 mm 3 mps 736 mmHg 92%
15:00 -8°C° 0.4 mm 4 mps 735 mmHg 93%
16:00 -8°C° 0.4 mm 4 mps 735 mmHg 94%
17:00 -8°C° 0.4 mm 4 mps 734 mmHg 95%
18:00 -8°C° 1.1 mm 5 mps 733 mmHg 95%
19:00 -8°C° 1.1 mm 5 mps 732 mmHg 95%
20:00 -8°C° 1.1 mm 6 mps 731 mmHg 95%
21:00 -7°C° 0.9 mm 5 mps 730 mmHg 95%
22:00 -6°C° 0.9 mm 5 mps 729 mmHg 96%
23:00 -6°C° 0.9 mm 5 mps 728 mmHg 96%

2 February, Tuesday

Time Temperature Precipitation Wind Pressure Humidity
00:00 -4°C° 1.1 mm 4 mps 728 mmHg 97%
01:00 -3°C° 1.1 mm 4 mps 728 mmHg 97%
02:00 -1°C° 1.1 mm 3 mps 727 mmHg 98%
03:00 -1°C° 0.4 mm 3 mps 727 mmHg 98%
04:00 -3°C° 0.4 mm 4 mps 727 mmHg 98%
05:00 -3°C° 0.4 mm 4 mps 727 mmHg 97%
06:00 -5°C° 0.3 mm 4 mps 728 mmHg 96%
07:00 -7°C° 0.3 mm 5 mps 728 mmHg 95%
08:00 -10°C° 0.3 mm 5 mps 729 mmHg 93%
09:00 -8°C° 0 mm 5 mps 730 mmHg 93%
10:00 -8°C° 0 mm 5 mps 731 mmHg 92%
11:00 -9°C° 0 mm 6 mps 732 mmHg 91%
12:00 -8°C° 0 mm 5 mps 733 mmHg 91%
13:00 -8°C° 0 mm 5 mps 734 mmHg 91%
14:00 -8°C° 0 mm 5 mps 735 mmHg 90%
15:00 -10°C° 0 mm 4 mps 736 mmHg 90%
16:00 -11°C° 0 mm 4 mps 737 mmHg 90%
17:00 -14°C° 0 mm 4 mps 738 mmHg 91%
18:00 -14°C° 0 mm 3 mps 738 mmHg 92%
19:00 -14°C° 0 mm 3 mps 739 mmHg 94%
20:00 -15°C° 0 mm 3 mps 739 mmHg 95%
21:00 -16°C° 0 mm 3 mps 740 mmHg 95%
22:00 -16°C° 0 mm 3 mps 740 mmHg 95%
23:00 -16°C° 0 mm 3 mps 740 mmHg 95%
Show more